Time,TemperatureF,DewpointF,PressureIn,WindDirection,WindDirectionDegrees,WindSpeedMPH,WindSpeedGustMPH,Humidity,HourlyPrecipIn,Conditions,Clouds,dailyrainin,SoftwareType,DateUTC
2013-04-05 00:02:00,43.0,21.0,-100.00,SW,215,2.0,9.0,42,0.00,,,-99.99,,2013-04-05 04:02:00,
2013-04-05 00:12:00,42.0,21.0,-100.00,SW,220,4.0,12.0,42,0.00,,,-99.99,,2013-04-05 04:12:00,
2013-04-05 00:23:00,42.0,21.0,-100.00,SW,215,4.0,12.0,42,0.00,,,-99.99,,2013-04-05 04:23:00,
2013-04-05 00:32:00,42.0,21.0,-100.00,SW,230,5.0,9.0,42,0.00,,,-99.99,,2013-04-05 04:32:00,
2013-04-05 00:42:00,42.0,22.0,-100.00,SW,230,4.0,9.0,44,0.00,,,-99.99,,2013-04-05 04:42:00,
2013-04-05 00:52:00,42.0,22.0,-100.00,SW,225,6.0,11.0,44,0.00,,,-99.99,,2013-04-05 04:52:00,
2013-04-05 01:02:00,42.0,22.0,-100.00,SW,225,4.0,11.0,44,0.00,,,-99.99,,2013-04-05 05:02:00,
2013-04-05 01:13:00,42.0,23.0,-100.00,SW,225,4.0,8.0,46,0.00,,,-99.99,,2013-04-05 05:13:00,
2013-04-05 01:22:00,42.0,23.0,-100.00,South,190,3.0,10.0,46,0.00,,,-99.99,,2013-04-05 05:22:00,
2013-04-05 01:32:00,41.0,23.0,-100.00,North,-999,-999.0,-999.0,48,0.00,,,-99.99,,2013-04-05 05:32:00,
2013-04-05 01:42:00,41.0,23.0,-100.00,SSW,210,3.0,7.0,48,0.00,,,-99.99,,2013-04-05 05:42:00,
2013-04-05 01:52:00,41.0,24.0,-100.00,SW,225,4.0,7.0,49,0.00,,,-99.99,,2013-04-05 05:52:00,
2013-04-05 02:02:00,40.0,24.0,-100.00,SW,220,3.0,11.0,51,0.00,,,-99.99,,2013-04-05 06:02:00,
2013-04-05 02:12:00,40.0,24.0,-100.00,SW,225,4.0,11.0,53,0.00,,,-99.99,,2013-04-05 06:12:00,
2013-04-05 02:22:00,40.0,25.0,-100.00,SW,220,2.0,11.0,54,0.00,,,-99.99,,2013-04-05 06:22:00,
2013-04-05 02:32:00,40.0,25.0,-100.00,North,-999,-999.0,-999.0,55,-99.99,,,-99.99,,2013-04-05 06:32:00,
2013-04-05 02:42:00,40.0,25.0,-100.00,WSW,240,5.0,9.0,55,0.00,,,-99.99,,2013-04-05 06:42:00,
2013-04-05 02:52:00,39.0,26.0,-100.00,SW,230,2.0,7.0,57,0.00,,,-99.99,,2013-04-05 06:52:00,
2013-04-05 03:02:00,39.0,26.0,-100.00,North,-999,-999.0,-999.0,57,0.00,,,-99.99,,2013-04-05 07:02:00,
2013-04-05 03:12:00,39.0,26.0,-100.00,SSW,210,2.0,8.0,59,0.00,,,-99.99,,2013-04-05 07:12:00,
2013-04-05 03:22:00,39.0,26.0,-100.00,SW,220,2.0,6.0,60,0.00,,,-99.99,,2013-04-05 07:22:00,
2013-04-05 03:32:00,38.0,27.0,-100.00,SW,220,2.0,7.0,62,0.00,,,-99.99,,2013-04-05 07:32:00,
2013-04-05 03:42:00,38.0,27.0,-100.00,SSW,195,3.0,7.0,62,0.00,,,-99.99,,2013-04-05 07:42:00,
2013-04-05 03:52:00,38.0,27.0,-100.00,SW,215,2.0,5.0,63,0.00,,,-99.99,,2013-04-05 07:52:00,
2013-04-05 04:03:00,38.0,27.0,-100.00,SSW,200,2.0,5.0,64,0.00,,,-99.99,,2013-04-05 08:03:00,
2013-04-05 04:13:00,37.0,27.0,-100.00,North,-999,-999.0,-999.0,66,0.00,,,-99.99,,2013-04-05 08:13:00,
2013-04-05 04:22:00,37.0,27.0,-100.00,ENE,65,1.0,6.0,67,0.00,,,-99.99,,2013-04-05 08:22:00,
2013-04-05 04:32:00,38.0,28.0,-100.00,SW,235,2.0,7.0,67,0.00,,,-99.99,,2013-04-05 08:32:00,
2013-04-05 04:43:00,37.0,28.0,-100.00,North,-999,-999.0,-999.0,68,0.00,,,-99.99,,2013-04-05 08:43:00,
2013-04-05 04:52:00,37.0,28.0,-100.00,SW,220,3.0,6.0,68,0.00,,,-99.99,,2013-04-05 08:52:00,
2013-04-05 05:02:00,37.0,28.0,-100.00,SW,225,2.0,6.0,69,0.00,,,-99.99,,2013-04-05 09:02:00,
2013-04-05 05:12:00,37.0,28.0,-100.00,SW,225,2.0,9.0,68,0.00,,,-99.99,,2013-04-05 09:12:00,
2013-04-05 05:22:00,37.0,28.0,-100.00,South,175,3.0,6.0,67,0.00,,,-99.99,,2013-04-05 09:22:00,
2013-04-05 05:33:00,37.0,28.0,-100.00,WSW,245,3.0,6.0,67,0.00,,,-99.99,,2013-04-05 09:33:00,
2013-04-05 05:43:00,37.0,28.0,-100.00,South,190,1.0,4.0,67,0.00,,,-99.99,,2013-04-05 09:43:00,
2013-04-05 05:52:00,37.0,28.0,-100.00,SSE,155,1.0,4.0,68,0.00,,,-99.99,,2013-04-05 09:52:00,
2013-04-05 06:03:00,37.0,28.0,-100.00,North,355,1.0,3.0,68,0.00,,,-99.99,,2013-04-05 10:03:00,
2013-04-05 06:13:00,37.0,27.0,-100.00,SW,220,1.0,3.0,68,0.00,,,-99.99,,2013-04-05 10:13:00,
2013-04-05 06:23:00,37.0,28.0,-100.00,SSW,205,1.0,2.0,70,0.00,,,-99.99,,2013-04-05 10:23:00,
2013-04-05 06:33:00,36.0,28.0,-100.00,SSW,200,1.0,4.0,70,0.00,,,-99.99,,2013-04-05 10:33:00,
2013-04-05 06:43:00,37.0,28.0,-100.00,SSW,205,1.0,3.0,70,0.00,,,-99.99,,2013-04-05 10:43:00,
2013-04-05 06:52:00,37.0,27.0,-100.00,SW,220,1.0,2.0,69,0.00,,,-99.99,,2013-04-05 10:52:00,
2013-04-05 07:03:00,37.0,27.0,-100.00,SSW,200,1.0,3.0,68,0.00,,,-99.99,,2013-04-05 11:03:00,
2013-04-05 07:13:00,37.0,27.0,-100.00,SW,215,2.0,4.0,64,0.00,,,-99.99,,2013-04-05 11:13:00,
2013-04-05 07:22:00,37.0,27.0,-100.00,SSW,210,2.0,4.0,65,0.00,,,-99.99,,2013-04-05 11:22:00,
2013-04-05 07:33:00,38.0,27.0,-100.00,South,190,1.0,5.0,63,0.00,,,-99.99,,2013-04-05 11:33:00,
2013-04-05 07:42:00,38.0,27.0,-100.00,SSW,210,0.0,4.0,63,0.00,,,-99.99,,2013-04-05 11:42:00,
2013-04-05 07:52:00,38.0,27.0,-100.00,SW,215,1.0,4.0,61,0.00,,,-99.99,,2013-04-05 11:52:00,
2013-04-05 08:02:00,39.0,27.0,-100.00,South,190,1.0,4.0,61,0.00,,,-99.99,,2013-04-05 12:02:00,
2013-04-05 08:12:00,40.0,27.0,-100.00,SW,215,2.0,6.0,59,0.00,,,-99.99,,2013-04-05 12:12:00,
2013-04-05 08:22:00,40.0,27.0,-100.00,South,185,2.0,6.0,58,0.00,,,-99.99,,2013-04-05 12:22:00,
2013-04-05 08:32:00,40.0,26.0,-100.00,SW,215,2.0,6.0,57,0.00,,,-99.99,,2013-04-05 12:32:00,
2013-04-05 08:42:00,40.0,26.0,-100.00,SW,220,6.0,12.0,55,0.00,,,-99.99,,2013-04-05 12:42:00,
2013-04-05 08:52:00,41.0,26.0,-100.00,SW,225,4.0,9.0,54,0.00,,,-99.99,,2013-04-05 12:52:00,
2013-04-05 09:02:00,41.0,25.0,-100.00,SW,230,6.0,9.0,53,0.00,,,-99.99,,2013-04-05 13:02:00,
2013-04-05 09:12:00,42.0,25.0,-100.00,SW,215,4.0,9.0,51,0.00,,,-99.99,,2013-04-05 13:12:00,
2013-04-05 09:23:00,43.0,25.0,-100.00,SW,230,6.0,11.0,48,0.00,,,-99.99,,2013-04-05 13:23:00,
2013-04-05 09:32:00,44.0,25.0,-100.00,SSW,200,5.0,10.0,47,0.00,,,-99.99,,2013-04-05 13:32:00,
2013-04-05 09:42:00,44.0,25.0,-100.00,SW,220,7.0,10.0,47,0.00,,,-99.99,,2013-04-05 13:42:00,
2013-04-05 09:52:00,45.0,24.0,-100.00,WSW,255,6.0,14.0,42,0.00,,,-99.99,,2013-04-05 13:52:00,
2013-04-05 10:03:00,45.0,24.0,-100.00,SW,235,6.0,14.0,43,0.00,,,-99.99,,2013-04-05 14:03:00,
2013-04-05 10:12:00,47.0,24.0,-100.00,West,265,3.0,9.0,39,0.00,,,-99.99,,2013-04-05 14:12:00,
2013-04-05 10:23:00,48.0,23.0,-100.00,West,275,4.0,8.0,38,0.00,,,-99.99,,2013-04-05 14:23:00,
2013-04-05 10:36:00,47.0,22.0,-100.00,SW,230,6.0,12.0,36,0.00,,,-99.99,,2013-04-05 14:36:00,
2013-04-05 10:43:00,49.0,23.0,-100.00,SW,235,4.0,11.0,35,0.00,,,-99.99,,2013-04-05 14:43:00,
2013-04-05 10:52:00,49.0,22.0,-100.00,West,265,4.0,10.0,34,0.00,,,-99.99,,2013-04-05 14:52:00,
2013-04-05 11:02:00,49.0,22.0,-100.00,SW,235,5.0,11.0,33,0.00,,,-99.99,,2013-04-05 15:02:00,
2013-04-05 11:13:00,49.0,21.0,-100.00,NW,310,5.0,8.0,32,0.00,,,-99.99,,2013-04-05 15:13:00,
2013-04-05 11:23:00,52.0,21.0,-100.00,WNW,300,6.0,10.0,30,0.00,,,-99.99,,2013-04-05 15:23:00,
2013-04-05 11:33:00,52.0,22.0,-100.00,West,260,4.0,9.0,30,0.00,,,-99.99,,2013-04-05 15:33:00,
2013-04-05 11:43:00,52.0,21.0,-100.00,SW,230,2.0,9.0,29,0.00,,,-99.99,,2013-04-05 15:43:00,
2013-04-05 11:53:00,53.0,20.0,-100.00,West,260,3.0,9.0,27,0.00,,,-99.99,,2013-04-05 15:53:00,
2013-04-05 12:03:00,53.0,20.0,-100.00,West,275,2.0,12.0,26,0.00,,,-99.99,,2013-04-05 16:03:00,
2013-04-05 12:13:00,54.0,20.0,-100.00,SW,235,4.0,8.0,26,0.00,,,-99.99,,2013-04-05 16:13:00,
2013-04-05 12:23:00,55.0,19.0,-100.00,WNW,290,3.0,6.0,24,0.00,,,-99.99,,2013-04-05 16:23:00,
2013-04-05 12:33:00,55.0,21.0,-100.00,West,260,5.0,9.0,25,0.00,,,-99.99,,2013-04-05 16:33:00,
2013-04-05 12:42:00,55.0,18.0,-100.00,West,275,5.0,9.0,22,0.00,,,-99.99,,2013-04-05 16:42:00,
2013-04-05 12:52:00,54.0,15.0,-100.00,SW,235,6.0,9.0,20,0.00,,,-99.99,,2013-04-05 16:52:00,
2013-04-05 13:03:00,55.0,17.0,-100.00,SSW,210,6.0,11.0,21,0.00,,,-99.99,,2013-04-05 17:03:00,
2013-04-05 13:13:00,57.0,16.0,-100.00,WNW,290,6.0,9.0,19,0.00,,,-99.99,,2013-04-05 17:13:00,
2013-04-05 13:23:00,58.0,16.0,-100.00,NE,35,1.0,9.0,19,0.00,,,-99.99,,2013-04-05 17:23:00,
2013-04-05 13:32:00,58.0,17.0,-100.00,WNW,290,3.0,9.0,20,0.00,,,-99.99,,2013-04-05 17:32:00,
2013-04-05 13:45:00,58.0,17.0,-100.00,SSE,165,4.0,8.0,20,0.00,,,-99.99,,2013-04-05 17:45:00,
2013-04-05 13:52:00,58.0,17.0,-100.00,WSW,240,4.0,10.0,19,0.00,,,-99.99,,2013-04-05 17:52:00,
2013-04-05 14:02:00,58.0,17.0,-100.00,West,270,5.0,10.0,19,0.00,,,-99.99,,2013-04-05 18:02:00,
2013-04-05 14:12:00,59.0,17.0,-100.00,SW,215,3.0,9.0,19,0.00,,,-99.99,,2013-04-05 18:12:00,
2013-04-05 14:23:00,58.0,15.0,-100.00,SE,145,3.0,7.0,18,0.00,,,-99.99,,2013-04-05 18:23:00,
2013-04-05 14:33:00,61.0,18.0,-100.00,West,265,1.0,8.0,18,0.00,,,-99.99,,2013-04-05 18:33:00,
2013-04-05 14:43:00,60.0,16.0,-100.00,West,270,6.0,9.0,17,0.00,,,-99.99,,2013-04-05 18:43:00,
2013-04-05 15:02:00,60.0,14.0,-100.00,WSW,250,2.0,14.0,16,0.00,,,-99.99,,2013-04-05 19:02:00,
2013-04-05 15:13:00,62.0,17.0,-100.00,West,275,2.0,13.0,17,0.00,,,-99.99,,2013-04-05 19:13:00,
2013-04-05 15:23:00,59.0,19.0,-100.00,NNW,340,7.0,14.0,20,0.00,,,-99.99,,2013-04-05 19:23:00,
2013-04-05 15:33:00,58.0,20.0,-100.00,West,270,5.0,14.0,22,0.00,,,-99.99,,2013-04-05 19:33:00,
2013-04-05 15:42:00,60.0,22.0,-100.00,NNW,340,7.0,14.0,22,0.00,,,-99.99,,2013-04-05 19:42:00,
2013-04-05 15:52:00,61.0,22.0,-100.00,NW,310,5.0,12.0,22,0.00,,,-99.99,,2013-04-05 19:52:00,
2013-04-05 16:02:00,60.0,22.0,-100.00,West,280,4.0,17.0,23,0.00,,,-99.99,,2013-04-05 20:02:00,
2013-04-05 16:11:00,60.0,21.0,-100.00,NW,325,6.0,13.0,22,0.00,,,-99.99,,2013-04-05 20:11:00,
2013-04-05 16:22:00,60.0,21.0,-100.00,WNW,285,7.0,14.0,22,0.00,,,-99.99,,2013-04-05 20:22:00,
2013-04-05 16:33:00,59.0,20.0,-100.00,North,350,4.0,17.0,21,0.00,,,-99.99,,2013-04-05 20:33:00,
2013-04-05 16:42:00,59.0,21.0,-100.00,NNW,340,7.0,16.0,22,0.00,,,-99.99,,2013-04-05 20:42:00,
2013-04-05 16:52:00,60.0,21.0,-100.00,NNW,335,4.0,13.0,22,0.00,,,-99.99,,2013-04-05 20:52:00,
2013-04-05 17:02:00,59.0,20.0,-100.00,NNW,340,7.0,16.0,22,0.00,,,-99.99,,2013-04-05 21:02:00,
2013-04-05 17:13:00,57.0,22.0,-100.00,NNW,330,9.0,14.0,25,0.00,,,-99.99,,2013-04-05 21:13:00,
2013-04-05 17:23:00,57.0,23.0,-100.00,WNW,290,7.0,16.0,25,0.00,,,-99.99,,2013-04-05 21:23:00,
2013-04-05 17:33:00,56.0,20.0,-100.00,NNW,335,11.0,20.0,24,0.00,,,-99.99,,2013-04-05 21:33:00,
2013-04-05 17:43:00,56.0,20.0,-100.00,NNE,25,6.0,16.0,24,0.00,,,-99.99,,2013-04-05 21:43:00,
2013-04-05 17:53:00,56.0,20.0,-100.00,NNW,330,7.0,18.0,24,0.00,,,-99.99,,2013-04-05 21:53:00,
2013-04-05 18:03:00,55.0,20.0,-100.00,North,355,7.0,14.0,25,0.00,,,-99.99,,2013-04-05 22:03:00,
2013-04-05 18:13:00,55.0,20.0,-100.00,NNW,335,4.0,14.0,24,0.00,,,-99.99,,2013-04-05 22:13:00,
2013-04-05 18:23:00,55.0,19.0,-100.00,North,355,6.0,14.0,24,0.00,,,-99.99,,2013-04-05 22:23:00,
2013-04-05 18:33:00,55.0,18.0,-100.00,NNW,330,7.0,18.0,23,0.00,,,-99.99,,2013-04-05 22:33:00,
2013-04-05 18:43:00,54.0,18.0,-100.00,NNW,345,5.0,18.0,24,0.00,,,-99.99,,2013-04-05 22:43:00,
2013-04-05 18:52:00,54.0,18.0,-100.00,North,355,7.0,12.0,24,0.00,,,-99.99,,2013-04-05 22:52:00,
2013-04-05 19:03:00,53.0,19.0,-100.00,NNW,330,6.0,16.0,26,0.00,,,-99.99,,2013-04-05 23:03:00,
2013-04-05 19:12:00,52.0,23.0,-100.00,NNW,335,4.0,17.0,32,0.00,,,-99.99,,2013-04-05 23:12:00,
2013-04-05 19:22:00,51.0,23.0,-100.00,NNW,345,7.0,14.0,32,0.00,,,-99.99,,2013-04-05 23:22:00,
2013-04-05 19:32:00,50.0,24.0,-100.00,NNW,340,5.0,14.0,35,0.00,,,-99.99,,2013-04-05 23:32:00,
2013-04-05 19:42:00,50.0,24.0,-100.00,NNW,345,6.0,12.0,36,0.00,,,-99.99,,2013-04-05 23:42:00,
2013-04-05 19:52:00,49.0,24.0,-100.00,NNW,335,7.0,17.0,37,0.00,,,-99.99,,2013-04-05 23:52:00,
2013-04-05 20:02:00,48.0,23.0,-100.00,NNW,345,7.0,17.0,36,0.00,,,-99.99,,2013-04-06 00:02:00,
2013-04-05 20:13:00,48.0,23.0,-100.00,North,355,7.0,17.0,37,0.00,,,-99.99,,2013-04-06 00:13:00,
2013-04-05 20:23:00,47.0,22.0,-100.00,NNW,330,6.0,17.0,36,0.00,,,-99.99,,2013-04-06 00:23:00,
2013-04-05 20:33:00,47.0,22.0,-100.00,North,-999,-999.0,-999.0,36,-99.99,,,-99.99,,2013-04-06 00:33:00,
2013-04-05 20:42:00,46.0,22.0,-100.00,NNW,330,5.0,16.0,38,0.00,,,-99.99,,2013-04-06 00:42:00,
2013-04-05 20:52:00,45.0,22.0,-100.00,NNW,335,8.0,17.0,39,0.00,,,-99.99,,2013-04-06 00:52:00,
2013-04-05 21:02:00,45.0,24.0,-100.00,North,0,8.0,24.0,42,0.00,,,-99.99,,2013-04-06 01:02:00,
2013-04-05 21:13:00,44.0,24.0,-100.00,North,350,7.0,15.0,45,0.00,,,-99.99,,2013-04-06 01:13:00,
2013-04-05 21:22:00,43.0,25.0,-100.00,NNW,340,7.0,19.0,48,0.00,,,-99.99,,2013-04-06 01:22:00,
2013-04-05 21:33:00,43.0,25.0,-100.00,North,0,12.0,21.0,48,0.00,,,-99.99,,2013-04-06 01:33:00,
2013-04-05 21:43:00,42.0,25.0,-100.00,NW,320,4.0,15.0,50,0.00,,,-99.99,,2013-04-06 01:43:00,
2013-04-05 21:52:00,42.0,25.0,-100.00,NNW,335,4.0,17.0,50,0.00,,,-99.99,,2013-04-06 01:52:00,
2013-04-05 22:02:00,41.0,25.0,-100.00,West,280,2.0,12.0,52,0.00,,,-99.99,,2013-04-06 02:02:00,
2013-04-05 22:12:00,41.0,24.0,-100.00,NNW,335,4.0,11.0,51,0.00,,,-99.99,,2013-04-06 02:12:00,
2013-04-05 22:22:00,41.0,24.0,-100.00,NNW,345,6.0,11.0,50,0.00,,,-99.99,,2013-04-06 02:22:00,
2013-04-05 22:32:00,40.0,24.0,-100.00,NW,325,2.0,11.0,51,0.00,,,-99.99,,2013-04-06 02:32:00,
2013-04-05 22:42:00,40.0,22.0,-100.00,NNW,335,6.0,14.0,48,0.00,,,-99.99,,2013-04-06 02:42:00,
2013-04-05 22:52:00,40.0,22.0,-100.00,NNW,335,6.0,18.0,48,0.00,,,-99.99,,2013-04-06 02:52:00,
2013-04-05 23:02:00,39.0,21.0,-100.00,NNW,340,8.0,17.0,47,0.00,,,-99.99,,2013-04-06 03:02:00,
2013-04-05 23:12:00,39.0,22.0,-100.00,NNW,335,8.0,17.0,49,0.00,,,-99.99,,2013-04-06 03:12:00,
2013-04-05 23:22:00,39.0,21.0,-100.00,NNW,330,7.0,17.0,49,0.00,,,-99.99,,2013-04-06 03:22:00,
2013-04-05 23:43:00,38.0,21.0,-100.00,NNW,340,9.0,21.0,49,0.00,,,-99.99,,2013-04-06 03:43:00,
2013-04-05 23:53:00,38.0,21.0,-100.00,NNW,330,7.0,17.0,49,0.00,,,-99.99,,2013-04-06 03:53:00,